EW5024 Weather Reports


Display with metric or nautical units.
time (UTC)temp
F
wind
direction
speed
MPH
gust
MPH
rain 1hr
in
rain 24hr
in
rain mn
in
humidity
%
barometer
mb
20260510204603 59 142 2.0 4.0 0.00 0.03 0.03 81 1012.8
20260510203057 59 194 1.0 3.0 0.00 0.03 0.03 81 1012.9
20260510201556 59 200 0.0 3.0 0.00 0.03 0.03 81 1012.9
20260510200108 59 201 1.0 5.0 0.00 0.03 0.03 81 1012.8
20260510194607 59 192 3.0 5.0 0.00 0.03 0.03 81 1012.8
20260510193112 59 129 1.0 7.0 0.00 0.03 0.03 81 1012.9
20260510191554 59 211 2.0 3.0 0.00 0.03 0.03 81 1012.9
20260510190055 59 202 0.0 2.0 0.00 0.03 0.03 81 1012.7
20260510184600 59 202 0.0 2.0 0.01 0.03 0.03 82 1012.7
20260510183153 59 202 0.0 2.0 0.01 0.03 0.03 81 1012.7
20260510181550 60 202 0.0 1.0 0.01 0.03 0.03 81 1012.7
20260510180051 60 202 0.0 2.0 0.01 0.03 0.03 81 1012.8
20260510174554 61 202 1.0 3.0 0.00 0.02 0.02 80 1012.8
20260510173047 61 200 1.0 4.0 0.00 0.02 0.02 80 1012.8
20260510171548 61 205 0.0 3.0 0.00 0.02 0.02 80 1012.7
20260510170047 62 208 2.0 4.0 0.00 0.02 0.02 80 1012.8
20260510164553 62 211 0.0 2.0 0.00 0.02 0.02 80 1012.8
20260510163046 62 211 0.0 2.0 0.00 0.02 0.02 79 1012.8
20260510161543 62 211 1.0 5.0 0.00 0.02 0.02 79 1012.9
20260510160042 62 171 0.0 3.0 0.00 0.02 0.02 78 1012.9
20260510154541 62 148 2.0 6.0 0.00 0.02 0.02 78 1013.1
20260510153038 62 196 2.0 6.0 0.00 0.02 0.02 78 1013.3
20260510151541 62 169 3.0 7.0 0.00 0.02 0.02 79 1013.4
20260510150041 62 226 3.0 6.0 0.00 0.02 0.02 80 1013.4
20260510144551 62 155 4.0 7.0 0.00 0.02 0.02 80 1013.6
20260510143033 62 188 4.0 6.0 0.00 0.02 0.02 80 1013.5
20260510141536 62 221 2.0 5.0 0.01 0.02 0.02 80 1013.6
20260510140032 62 187 3.0 7.0 0.01 0.02 0.02 80 1013.7
20260510134531 62 169 5.0 10.0 0.02 0.02 0.02 80 1013.8
20260510133030 61 147 7.0 11.0 0.02 0.02 0.02 80 1014.0
20260510131528 61 164 7.0 11.0 0.02 0.02 0.02 80 1014.1
20260510130028 61 158 4.0 10.0 0.02 0.02 0.02 80 1014.1
20260510124526 61 163 3.0 12.0 0.01 0.01 0.01 79 1014.1
20260510123026 62 103 6.0 13.0 0.00 0.00 0.00 78 1014.2
20260510121529 62 154 4.0 9.0 0.00 0.00 0.00 77 1014.2
20260510120025 62 131 5.0 10.0 0.00 0.00 0.00 76 1014.3
20260510114535 63 112 4.0 10.0 0.00 0.00 0.00 74 1014.3
20260510113033 63 161 5.0 16.0 0.00 0.00 0.00 72 1014.3
20260510111530 63 129 9.0 17.0 0.00 0.00 0.00 71 1014.2
20260510110033 63 121 9.0 15.0 0.00 0.00 0.00 69 1014.3
20260510104520 64 175 11.0 17.0 0.00 0.00 0.00 65 1014.4
20260510103022 65 171 8.0 14.0 0.00 0.00 0.00 65 1014.4
20260510101519 65 111 7.0 11.0 0.00 0.00 0.00 62 1014.2
20260510100025 64 222 2.0 4.0 0.00 0.00 0.00 63 1014.2
20260510094517 64 259 2.0 5.0 0.00 0.00 0.00 62 1014.1
20260510093015 64 238 2.0 4.0 0.00 0.00 0.00 62 1014.3
20260510091514 65 230 0.0 4.0 0.00 0.00 0.00 62 1014.4
20260510090012 64 309 0.0 3.0 0.00 0.00 0.00 62 1014.5
20260510084509 64 317 1.0 3.0 0.00 0.00 0.00 61 1014.6
20260510083013 63 343 1.0 4.0 0.00 0.00 0.00 62 1014.7
20260510081506 64 300 0.0 3.0 0.00 0.00 0.00 62 1014.8
20260510080003 62 331 2.0 6.0 0.00 0.00 0.00 63 1014.9
20260510074607 62 303 2.0 6.0 0.00 0.00 0.00 64 1015.0
20260510073059 61 5 3.0 6.0 0.00 0.00 0.00 65 1015.2
20260510071602 60 289 4.0 9.0 0.00 0.00 0.00 66 1015.3
20260510070108 59 318 3.0 6.0 0.00 0.00 0.00 69 1015.4
20260510064559 58 319 3.0 8.0 0.00 0.00 0.00 70 1015.7
20260510063056 58 329 2.0 5.0 0.00 0.00 0.00 74 1015.8
20260510061549 56 317 2.0 5.0 0.00 0.00 0.00 78 1016.0
20260510060048 54 319 1.0 2.0 0.00 0.00 0.00 79 1016.0
20260510054553 54 319 0.0 2.0 0.00 0.00 0.00 79 1016.1
20260510053047 53 319 0.0 1.0 0.00 0.00 0.00 80 1016.1
20260510051546 53 330 0.0 3.0 0.00 0.00 0.00 80 1016.2
20260510050045 53 328 1.0 3.0 0.00 0.00 0.00 79 1016.1
20260510044543 53 327 0.0 2.0 0.00 0.00 0.00 79 1016.2
20260510043043 52 325 0.0 0.0 0.00 0.00 0.00 80 1016.3
20260510041549 52 324 0.0 0.0 0.00 0.00 0.00 80 1016.4
20260510040041 52 324 0.0 0.0 0.00 0.00 0.00 80 1016.4
20260510034539 52 324 0.0 0.0 0.00 0.00 0.00 80 1016.4
20260510033053 52 324 0.0 0.0 0.00 0.00 0.00 80 1016.5
20260510031538 52 324 0.0 0.0 0.00 0.00 0.00 80 1016.5
20260510030036 53 334 0.0 3.0 0.00 0.00 0.00 80 1016.6
20260510024532 54 326 0.0 4.0 0.00 0.00 0.00 79 1016.6
20260510023033 54 265 0.0 0.0 0.00 0.00 0.00 78 1016.7
20260510021536 54 265 0.0 0.0 0.00 0.00 0.00 78 1016.7
20260510020032 54 265 0.0 0.0 0.00 0.00 0.00 78 1016.7
20260510014532 54 265 0.0 0.0 0.00 0.00 0.00 78 1016.8
20260510013029 55 264 1.0 3.0 0.00 0.00 0.00 77 1016.9
20260510011525 55 263 0.0 0.0 0.00 0.00 0.00 77 1016.8
20260510010023 55 262 1.0 6.0 0.00 0.00 0.00 76 1016.8
20260510004521 56 324 0.0 3.0 0.00 0.00 0.00 74 1016.8
20260510003020 56 321 0.0 2.0 0.00 0.00 0.00 74 1016.8
20260510001521 58 322 1.0 4.0 0.00 0.00 0.00 71 1016.8
20260510000014 59 296 2.0 5.0 0.00 0.00 0.00 71 1016.7
20260509234514 59 226 1.0 4.0 0.00 0.00 0.00 70 1016.9
20260509233011 60 196 2.0 4.0 0.00 0.00 0.00 69 1016.9
20260509231511 59 215 2.0 5.0 0.00 0.00 0.00 70 1016.7
20260509230008 61 224 3.0 4.0 0.00 0.00 0.00 67 1016.8
20260509224506 62 194 3.0 7.0 0.00 0.00 0.00 64 1016.8
20260509223005 61 158 1.0 6.0 0.00 0.00 0.00 64 1016.9
20260509221502 60 238 0.0 2.0 0.00 0.00 0.00 67 1016.8
20260509220104 60 238 0.0 0.0 0.00 0.00 0.00 66 1016.6
20260509214558 61 302 0.0 4.0 0.00 0.00 0.00 64 1016.5
20260509213103 62 210 1.0 4.0 0.00 0.00 0.00 61 1016.4
20260509211604 62 225 2.0 4.0 0.00 0.00 0.00 61 1016.4
20260509210101 62 232 3.0 4.0 0.00 0.00 0.00 63 1016.5